Weather History for PAPG - February, 2013

Change the Weather History Date:

Sunday, February 17, 2013

  Actual Average Record
Temperature  
Mean Temperature 32 °F -  
Max Temperature 35 °F 36 °F 48 °F (1998)
Min Temperature 30 °F 28 °F 6 °F (2011)
Degree Days  
Heating Degree Days 32    
Moisture  
Dew Point 30 °F    
Average Humidity 86    
Maximum Humidity 100    
Minimum Humidity 81    
Precipitation  
Precipitation 0.19 in - - ()
Sea Level Pressure  
Sea Level Pressure 29.97 in    
Wind  
Wind Speed 4 mph (East)    
Max Wind Speed 14 mph    
Max Gust Speed 20 mph    
Visibility 4 miles    
Events      
Averages and records for this station are not official NWS values.
T = Trace of Precipitation, MM = Missing Value Source: NWS Daily Summary

Daily Weather History Graph

Daily Weather History Graph

Search for Another Location

Airport or City:

Trip Planner

Search our weather history database for the weather conditions in past years. The results will help you decide how hot, cold, wet, or windy it might be!

Date:

Astronomy

Feb. 17, 2013 Rise Set
Actual Time 7:13 AM AKST 4:59 PM AKST
Civil Twilight 6:34 AM AKST 5:38 PM AKST
Nautical Twilight 5:50 AM AKST 6:22 PM AKST
Astronomical Twilight 5:06 AM AKST 7:06 PM AKST
Moon 9:37 AM AKST (2/17) 1:32 AM AKST (2/17)
Length of Visible Light 11h 04m
Length of Day
9h 45m
Waxing Crescent, 50% of the Moon is Illuminated
Feb 17
Waxing Crescent
Feb 25
Full
Mar 4
Last Quarter
Mar 11
New
Mar 19
First Quarter

Hourly Weather History & Observations

Time (AKST) Temp. Windchill Dew Point Humidity Pressure Visibility Wind Dir Wind Speed Gust Speed Precip Events Conditions
12:16 AM 30.2 °F 24.3 °F 26.6 °F 86% 30.18 in 0.5 mi West 5.8 mph - N/A   Mostly Cloudy
12:36 AM 30.2 °F 24.3 °F 28.4 °F 93% 30.18 in 0.5 mi WSW 5.8 mph - N/A   Overcast
12:56 AM 30.2 °F 25.4 °F 28.4 °F 93% 30.19 in 0.8 mi WSW 4.6 mph - N/A   Overcast
1:16 AM 30.2 °F - 28.4 °F 93% 30.19 in 4.0 mi Calm Calm - N/A   Overcast
1:36 AM 30.2 °F - 28.4 °F 93% 30.19 in 10.0 mi Calm Calm - N/A   Overcast
1:56 AM 30.2 °F 26.7 °F 28.4 °F 93% 30.18 in 10.0 mi WSW 3.5 mph - N/A   Overcast
2:16 AM 32.0 °F 28.7 °F 28.4 °F 87% 30.17 in 10.0 mi WSW 3.5 mph - N/A   Overcast
2:36 AM 32.0 °F 27.5 °F 30.2 °F 93% 30.17 in 10.0 mi West 4.6 mph - N/A   Overcast
2:56 AM 32.0 °F 28.7 °F 28.4 °F 87% 30.16 in 1.0 mi West 3.5 mph - N/A   Overcast
3:16 AM 32.0 °F 28.7 °F 30.2 °F 93% 30.15 in 3.0 mi West 3.5 mph - N/A   Overcast
3:36 AM 32.0 °F - 30.2 °F 93% 30.15 in 0.5 mi Calm Calm - N/A   Overcast
3:56 AM 32.0 °F - 30.2 °F 93% 30.15 in 1.5 mi Calm Calm - N/A   Overcast
4:16 AM 32.0 °F - 30.2 °F 93% 30.14 in 10.0 mi Calm Calm - N/A   Overcast
4:36 AM 32.0 °F - 28.4 °F 87% 30.14 in 10.0 mi Calm Calm - N/A   Overcast
4:56 AM 32.0 °F - 30.2 °F 93% 30.13 in 5.0 mi Calm Calm - N/A   Overcast
5:16 AM 32.0 °F - 28.4 °F 87% 30.12 in 3.0 mi Calm Calm - N/A   Overcast
5:36 AM 32.0 °F - 30.2 °F 93% 30.11 in 0.5 mi Calm Calm - N/A   Overcast
5:56 AM 30.2 °F - 30.2 °F 100% 30.11 in 0.5 mi Calm Calm - N/A   Overcast
6:16 AM 32.0 °F - 28.4 °F 87% 30.10 in 0.5 mi Calm Calm - N/A   Overcast
6:36 AM 32.0 °F - 30.2 °F 93% 30.09 in 0.5 mi Calm Calm - N/A   Overcast
6:56 AM 32.0 °F - 30.2 °F 93% 30.08 in 4.0 mi Calm Calm - N/A   Overcast
7:16 AM 32.0 °F - 30.2 °F 93% 30.07 in 4.0 mi Calm Calm - N/A   Overcast
7:36 AM 32.0 °F 28.7 °F 30.2 °F 93% 30.07 in 4.0 mi SW 3.5 mph - N/A   Overcast
7:56 AM 32.0 °F - 30.2 °F 93% 30.06 in 10.0 mi Calm Calm - N/A   Mostly Cloudy
8:16 AM 32.0 °F - 30.2 °F 93% 30.06 in 10.0 mi Calm Calm - N/A   Mostly Cloudy
8:36 AM 33.8 °F 30.8 °F 30.2 °F 87% 30.04 in 10.0 mi NE 3.5 mph - N/A   Mostly Cloudy
8:56 AM 33.8 °F 30.8 °F 30.2 °F 87% 30.03 in 10.0 mi NE 3.5 mph - N/A   Mostly Cloudy
9:16 AM 35.6 °F 31.7 °F 30.2 °F 81% 30.03 in 10.0 mi South 4.6 mph - N/A   Mostly Cloudy
9:36 AM 33.8 °F - 30.2 °F 87% 30.03 in 10.0 mi Calm Calm - N/A   Mostly Cloudy
9:56 AM 35.6 °F 32.8 °F 30.2 °F 81% 30.02 in 5.0 mi SE 3.5 mph - N/A   Overcast
10:16 AM 35.6 °F - 30.2 °F 81% 30.02 in 5.0 mi Calm Calm - N/A   Overcast
10:36 AM 33.8 °F 30.8 °F 30.2 °F 87% 30.02 in 5.0 mi NE 3.5 mph - N/A   Overcast
10:56 AM 35.6 °F 32.8 °F 30.2 °F 81% 30.01 in 3.0 mi ENE 3.5 mph - N/A   Overcast
11:36 AM 33.8 °F - 30.2 °F 87% 30.00 in 3.0 mi Calm Calm - N/A   Overcast
11:56 AM 33.8 °F - 30.2 °F 87% 29.99 in 2.0 mi Calm Calm - N/A   Overcast
12:16 PM 33.8 °F 29.6 °F 30.2 °F 87% 29.98 in 2.0 mi East 4.6 mph - N/A   Overcast
12:36 PM 33.8 °F 29.6 °F 30.2 °F 87% 29.98 in 2.0 mi East 4.6 mph - 0.01 in   Overcast
12:56 PM 33.8 °F 29.6 °F 30.2 °F 87% 29.97 in 1.2 mi ENE 4.6 mph - 0.01 in   Overcast
1:16 PM 33.8 °F 27.7 °F 30.2 °F 87% 29.96 in 1.2 mi East 6.9 mph - 0.01 in   Overcast
1:36 PM 33.8 °F 27.0 °F 30.2 °F 87% 29.95 in 1.2 mi East 8.1 mph - 0.01 in   Overcast
1:56 PM 33.8 °F 26.4 °F 30.2 °F 87% 29.94 in 2.0 mi ESE 9.2 mph - 0.02 in   Overcast
2:16 PM 33.8 °F 27.0 °F 30.2 °F 87% 29.93 in - East 8.1 mph - N/A   Overcast
2:36 PM 35.6 °F 27.1 °F 30.2 °F 81% 29.92 in 5.0 mi East 12.7 mph 18.4 mph N/A   Overcast
2:56 PM 35.6 °F 26.6 °F 30.2 °F 81% 29.91 in 7.0 mi East 13.8 mph 19.6 mph N/A   Overcast
3:16 PM 35.6 °F 29.2 °F 30.2 °F 81% 29.90 in 7.0 mi East 8.1 mph 18.4 mph N/A   Overcast
3:36 PM 35.6 °F 28.0 °F 30.2 °F 81% 29.90 in 7.0 mi ESE 10.4 mph 19.6 mph N/A   Overcast
3:56 PM 35.6 °F 29.2 °F 30.2 °F 81% 29.89 in 3.0 mi ESE 8.1 mph - N/A   Overcast
4:16 PM 35.6 °F 28.6 °F 30.2 °F 81% 29.87 in 3.0 mi ESE 9.2 mph 18.4 mph N/A   Overcast
4:36 PM 35.6 °F 28.6 °F 30.2 °F 81% 29.87 in 3.0 mi East 9.2 mph - 0.01 in   Overcast
4:56 PM 35.6 °F 27.5 °F 30.2 °F 81% 29.86 in 3.0 mi East 11.5 mph - 0.01 in   Overcast
5:16 PM 35.6 °F 28.6 °F 30.2 °F 81% 29.85 in 3.0 mi East 9.2 mph 18.4 mph N/A   Overcast
5:36 PM 35.6 °F 29.9 °F 30.2 °F 81% 29.85 in 3.0 mi East 6.9 mph - 0.01 in   Overcast
5:56 PM 35.6 °F 27.5 °F 30.2 °F 81% 29.84 in 4.0 mi East 11.5 mph 16.1 mph 0.01 in   Overcast
6:16 PM 35.6 °F 28.0 °F 30.2 °F 81% 29.83 in 4.0 mi East 10.4 mph 18.4 mph N/A   Overcast
6:36 PM 35.6 °F 28.0 °F 30.2 °F 81% 29.83 in 4.0 mi East 10.4 mph 16.1 mph N/A   Overcast
6:56 PM 35.6 °F 28.6 °F 30.2 °F 81% 29.82 in 4.0 mi East 9.2 mph - N/A   Overcast
7:16 PM 35.6 °F 29.9 °F 30.2 °F 81% 29.82 in 4.0 mi ENE 6.9 mph 19.6 mph N/A   Overcast
7:36 PM 35.6 °F 29.9 °F 30.2 °F 81% 29.81 in 4.0 mi East 6.9 mph - 0.01 in   Overcast
7:56 PM 35.6 °F 31.7 °F 30.2 °F 81% 29.81 in 3.0 mi East 4.6 mph - 0.02 in   Overcast
8:16 PM 35.6 °F 29.2 °F 30.2 °F 81% 29.80 in 3.0 mi WNW 8.1 mph - 0.01 in   Overcast
8:36 PM 35.6 °F 30.7 °F 30.2 °F 81% 29.80 in 3.0 mi WNW 5.8 mph - 0.03 in   Overcast
8:56 PM 33.8 °F 30.8 °F 30.2 °F 87% 29.79 in 2.5 mi ENE 3.5 mph - 0.04 in   Overcast
9:16 PM 35.6 °F 32.8 °F 30.2 °F 81% 29.79 in 2.5 mi North 3.5 mph - 0.01 in   Overcast
9:36 PM 35.6 °F - 30.2 °F 81% 29.79 in 2.5 mi Calm Calm - 0.02 in   Overcast
9:56 PM 35.6 °F - 30.2 °F 81% 29.78 in 2.5 mi Calm Calm - 0.02 in   Overcast
10:16 PM 35.6 °F 32.8 °F 30.2 °F 81% 29.78 in - East 3.5 mph - 0.01 in   Unknown
10:36 PM 35.6 °F - 30.2 °F 81% 29.78 in 7.0 mi Calm Calm - 0.02 in   Overcast
10:56 PM 35.6 °F 31.7 °F 30.2 °F 81% 29.77 in 5.0 mi North 4.6 mph - 0.04 in   Overcast
11:16 PM 35.6 °F 31.7 °F 30.2 °F 81% 29.77 in 5.0 mi North 4.6 mph - 0.01 in   Overcast
11:36 PM 33.8 °F - 30.2 °F 87% 29.76 in 9.0 mi Calm Calm - 0.02 in   Overcast
11:56 PM 33.8 °F 30.8 °F 30.2 °F 87% 29.76 in 10.0 mi SSW 3.5 mph - 0.02 in   Overcast